N7NKE Weather Reports


Display with metric or nautical units.
time (UTC)temp
F
wind
direction
speed
MPH
gust
MPH
rain 1hr
in
rain 24hr
in
rain mn
in
humidity
%
barometer
mb
20260507051505 54 344 3.0 6.0 0.00 0.00 0.00 81 1021.2
20260507051005 55 7 5.0 7.0 0.00 0.00 0.00 81 1021.2
20260507050005 55 352 3.0 5.0 0.00 0.00 0.00 80 1021.2
20260507045504 55 351 3.0 5.0 0.00 0.00 0.00 79 1021.2
20260507044505 56 342 2.0 6.0 0.00 0.00 0.00 78 1021.2
20260507044005 56 345 3.0 5.0 0.00 0.00 0.00 78 1021.2
20260507043504 56 349 4.0 7.0 0.00 0.00 0.00 78 1021.2
20260507042505 57 347 2.0 3.0 0.00 0.00 0.00 77 1021.2
20260507042004 57 339 3.0 6.0 0.00 0.00 0.00 76 1021.2
20260507041505 57 346 3.0 6.0 0.00 0.00 0.00 76 1021.2
20260507041004 57 3 3.0 8.0 0.00 0.00 0.00 76 1021.2
20260507040005 57 327 5.0 8.0 0.00 0.00 0.00 76 1021.0
20260507035504 57 356 3.0 7.0 0.00 0.00 0.00 76 1021.0
20260507035004 57 343 3.0 6.0 0.00 0.00 0.00 76 1020.9
20260507034505 58 336 4.0 9.0 0.00 0.00 0.00 75 1020.8
20260507034004 58 342 5.0 9.0 0.00 0.00 0.00 75 1020.8
20260507033505 58 350 5.0 10.0 0.00 0.00 0.00 75 1020.8
20260507033006 58 344 6.0 9.0 0.00 0.00 0.00 74 1020.7
20260507032505 58 349 6.0 10.0 0.00 0.00 0.00 74 1020.6
20260507032004 58 341 5.0 10.0 0.00 0.00 0.00 74 1020.5
20260507031505 59 340 5.0 12.0 0.00 0.00 0.00 73 1020.5
20260507031005 59 346 7.0 13.0 0.00 0.00 0.00 73 1020.4
20260507030504 59 348 6.0 12.0 0.00 0.00 0.00 72 1020.4
20260507030005 59 332 6.0 10.0 0.00 0.00 0.00 72 1020.3
20260507025505 60 334 6.0 13.0 0.00 0.00 0.00 72 1020.3
20260507025004 60 332 6.0 13.0 0.00 0.00 0.00 72 1020.2
20260507024505 60 341 6.0 12.0 0.00 0.00 0.00 72 1020.2
20260507024005 61 329 5.0 10.0 0.00 0.00 0.00 72 1020.1
20260507023504 61 351 5.0 10.0 0.00 0.00 0.00 72 1020.1
20260507023006 61 354 5.0 9.0 0.00 0.00 0.00 72 1020.0
20260507022505 62 345 5.0 9.0 0.00 0.00 0.00 70 1020.0
20260507022004 62 344 5.0 9.0 0.00 0.00 0.00 71 1020.0
20260507021504 63 350 3.0 7.0 0.00 0.00 0.00 71 1020.0
20260507021004 63 338 3.0 7.0 0.00 0.00 0.00 70 1019.9
20260507020505 63 338 3.0 10.0 0.00 0.00 0.00 69 1019.9
20260507020005 63 339 5.0 8.0 0.00 0.00 0.00 69 1019.9
20260507015505 64 333 5.0 8.0 0.00 0.00 0.00 68 1020.0
20260507015005 64 340 6.0 9.0 0.00 0.00 0.00 68 1020.0
20260507014505 64 350 4.0 8.0 0.00 0.00 0.00 68 1020.0
20260507014005 65 348 5.0 12.0 0.00 0.00 0.00 67 1020.1
20260507013505 65 329 5.0 9.0 0.00 0.00 0.00 67 1020.0
20260507013005 66 358 4.0 8.0 0.00 0.00 0.00 67 1020.0
20260507012504 65 330 3.0 6.0 0.00 0.00 0.00 68 1019.9
20260507012004 65 341 5.0 8.0 0.00 0.00 0.00 68 1020.0
20260507011505 65 335 3.0 7.0 0.00 0.00 0.00 69 1020.0
20260507011004 65 336 4.0 7.0 0.00 0.00 0.00 69 1020.1
20260507010005 65 337 5.0 8.0 0.00 0.00 0.00 69 1020.1
20260507005505 65 351 4.0 9.0 0.00 0.00 0.00 69 1020.1
20260507004505 66 333 3.0 6.0 0.00 0.00 0.00 70 1020.0
20260507004004 66 343 3.0 5.0 0.00 0.00 0.00 70 1020.0
20260507003505 66 327 3.0 6.0 0.00 0.00 0.00 70 1020.0
20260507002504 67 358 3.0 8.0 0.00 0.00 0.00 68 1019.9
20260507002005 67 6 3.0 6.0 0.00 0.00 0.00 69 1019.9
20260507001505 67 356 3.0 7.0 0.00 0.00 0.00 68 1019.9
20260507001005 67 335 3.0 6.0 0.00 0.00 0.00 67 1019.8
20260507000505 66 332 3.0 6.0 0.00 0.00 0.00 67 1019.8
20260507000005 66 352 3.0 6.0 0.00 0.00 0.00 68 1019.9
20260506235504 66 333 3.0 5.0 0.00 0.00 0.00 67 1019.9
20260506235004 67 344 3.0 10.0 0.00 0.00 0.00 68 1019.9
20260506234505 67 349 3.0 7.0 0.00 0.00 0.00 68 1019.9
20260506234004 67 325 3.0 5.0 0.00 0.00 0.00 69 1019.9
20260506233504 67 319 3.0 6.0 0.00 0.00 0.00 68 1019.9
20260506233004 67 327 3.0 5.0 0.00 0.00 0.00 67 1019.8
20260506232005 67 347 3.0 6.0 0.00 0.00 0.00 68 1019.8
20260506231505 67 323 3.0 6.0 0.00 0.00 0.00 68 1019.8
20260506230504 68 323 2.0 3.0 0.00 0.00 0.00 69 1019.9
20260506230004 68 329 3.0 6.0 0.00 0.00 0.00 69 1019.9
20260506225504 68 347 2.0 3.0 0.00 0.00 0.00 69 1019.9
20260506225004 68 12 2.0 5.0 0.00 0.00 0.00 69 1019.9
20260506224504 68 356 1.0 2.0 0.00 0.00 0.00 69 1019.9
20260506224005 68 333 1.0 2.0 0.00 0.00 0.00 67 1020.0
20260506223504 68 333 1.0 3.0 0.00 0.00 0.00 67 1020.0
20260506223004 68 26 1.0 3.0 0.00 0.00 0.00 68 1020.0
20260506222504 68 59 2.0 3.0 0.00 0.00 0.00 69 1020.0
20260506222004 68 323 2.0 2.0 0.00 0.00 0.00 68 1020.0
20260506221506 68 332 1.0 3.0 0.00 0.00 0.00 69 1020.1
20260506220504 68 17 1.0 2.0 0.00 0.00 0.00 70 1020.0
20260506220005 68 339 2.0 3.0 0.00 0.00 0.00 70 1020.0
20260506215504 68 326 2.0 5.0 0.00 0.00 0.00 71 1019.9
20260506215006 68 6 2.0 5.0 0.00 0.00 0.00 70 1019.9
20260506214505 67 79 2.0 6.0 0.00 0.00 0.00 72 1019.9
20260506214005 67 13 1.0 3.0 0.00 0.00 0.00 72 1020.0
20260506213006 67 7 2.0 3.0 0.00 0.00 0.00 70 1020.1
20260506212505 68 336 2.0 3.0 0.00 0.00 0.00 70 1020.0
20260506212004 68 75 2.0 3.0 0.00 0.00 0.00 68 1020.1
20260506211505 68 353 1.0 5.0 0.00 0.00 0.00 69 1020.0
20260506211005 68 26 1.0 3.0 0.00 0.00 0.00 70 1020.0
20260506210504 68 143 2.0 8.0 0.00 0.00 0.00 70 1020.0
20260506205504 67 49 1.0 2.0 0.00 0.00 0.00 71 1020.2
20260506204505 67 54 2.0 5.0 0.00 0.00 0.00 71 1020.2
20260506204004 67 51 2.0 2.0 0.00 0.00 0.00 72 1020.2
20260506203505 66 51 3.0 7.0 0.00 0.00 0.00 71 1020.2
20260506202504 66 74 2.0 3.0 0.00 0.00 0.00 71 1020.3
20260506202005 66 248 1.0 5.0 0.00 0.00 0.00 68 1020.3
20260506201505 66 192 2.0 8.0 0.00 0.00 0.00 69 1020.2
20260506201004 66 90 1.0 5.0 0.00 0.00 0.00 70 1020.2
20260506200504 66 139 3.0 6.0 0.00 0.00 0.00 70 1020.3
20260506200004 66 308 2.0 7.0 0.00 0.00 0.00 70 1020.2
20260506195005 65 161 3.0 5.0 0.00 0.00 0.00 71 1020.4
20260506194004 65 80 2.0 5.0 0.00 0.00 0.00 72 1020.5
20260506193505 65 154 3.0 5.0 0.00 0.00 0.00 72 1020.5
20260506193004 65 205 1.0 3.0 0.00 0.00 0.00 73 1020.5
20260506192504 65 90 3.0 6.0 0.00 0.00 0.00 72 1020.5
20260506192004 65 94 3.0 5.0 0.00 0.00 0.00 74 1020.5
20260506191504 64 116 2.0 3.0 0.00 0.00 0.00 73 1020.5
20260506191004 64 161 1.0 2.0 0.00 0.00 0.00 72 1020.6
20260506190504 65 21 1.0 7.0 0.00 0.00 0.00 74 1020.5
20260506190005 65 169 6.0 9.0 0.00 0.00 0.00 72 1020.6
20260506185505 65 287 2.0 8.0 0.00 0.00 0.00 71 1020.6
20260506185004 65 120 5.0 10.0 0.00 0.00 0.00 72 1020.6
20260506184505 65 126 6.0 10.0 0.00 0.00 0.00 72 1020.5
20260506184005 64 109 3.0 12.0 0.00 0.00 0.00 74 1020.5
20260506183504 64 165 5.0 8.0 0.00 0.00 0.00 73 1020.6
20260506183006 63 147 6.0 9.0 0.00 0.00 0.00 75 1020.6
20260506182504 64 0 3.0 10.0 0.00 0.00 0.00 74 1020.6
20260506182004 64 203 3.0 9.0 0.00 0.00 0.00 74 1020.6
20260506181004 64 109 5.0 9.0 0.00 0.00 0.00 72 1020.5
20260506180504 64 120 5.0 9.0 0.00 0.00 0.00 74 1020.4
20260506180005 64 192 6.0 12.0 0.00 0.00 0.00 74 1020.4
20260506175504 63 164 5.0 9.0 0.00 0.00 0.00 77 1020.4
20260506175004 62 165 6.0 10.0 0.00 0.00 0.00 77 1020.5
20260506174004 62 212 2.0 6.0 0.00 0.00 0.00 78 1020.6
20260506173504 61 175 6.0 9.0 0.00 0.00 0.00 79 1020.6
20260506173004 61 177 4.0 8.0 0.00 0.00 0.00 79 1020.7
20260506172004 60 136 6.0 8.0 0.00 0.00 0.00 79 1020.5
20260506171505 60 139 1.0 3.0 0.00 0.00 0.00 79 1020.5
20260506171004 60 206 2.0 6.0 0.00 0.00 0.00 80 1020.5
20260506170504 60 336 4.0 6.0 0.00 0.00 0.00 80 1020.6
20260506170005 60 0 3.0 6.0 0.00 0.00 0.00 80 1020.6
20260506165504 59 187 2.0 6.0 0.00 0.00 0.00 81 1020.5
20260506164504 59 166 1.0 3.0 0.00 0.00 0.00 81 1020.5
20260506163004 58 110 2.0 7.0 0.00 0.00 0.00 82 1020.4
20260506161504 58 96 1.0 2.0 0.00 0.00 0.00 83 1020.7
20260506161005 58 97 0.0 2.0 0.00 0.00 0.00 83 1020.6
20260506160005 57 0 1.0 2.0 0.00 0.00 0.00 82 1020.5
20260506155004 57 0 0.0 3.0 0.00 0.00 0.00 83 1020.4
20260506153504 57 0 0.0 2.0 0.00 0.00 0.00 84 1020.2
20260506152504 56 83 2.0 2.0 0.00 0.00 0.00 84 1019.9
20260506152004 56 24 0.0 2.0 0.00 0.00 0.00 84 1019.9
20260506151505 56 56 0.0 2.0 0.00 0.00 0.00 85 1019.9
20260506151006 56 320 1.0 2.0 0.00 0.00 0.00 85 1020.1
20260506150005 56 83 2.0 3.0 0.00 0.00 0.00 86 1019.9
20260506145507 56 350 0.0 2.0 0.00 0.00 0.00 86 1020.3
20260506144505 56 352 0.0 2.0 0.00 0.00 0.00 87 1020.4
20260506142505 55 345 2.0 3.0 0.00 0.00 0.00 87 1020.4
20260506142005 55 349 2.0 3.0 0.00 0.00 0.00 87 1020.3
20260506141505 55 334 2.0 3.0 0.00 0.00 0.00 87 1020.2
20260506141005 55 8 2.0 3.0 0.00 0.00 0.00 87 1020.1
20260506140505 55 343 2.0 3.0 0.00 0.00 0.00 87 1020.1
20260506140005 55 352 1.0 2.0 0.00 0.00 0.00 87 1019.9
20260506135505 55 330 1.0 2.0 0.00 0.00 0.00 87 1019.7
20260506135005 55 338 0.0 2.0 0.00 0.00 0.00 88 1019.5
20260506134506 55 338 0.0 2.0 0.00 0.00 0.00 87 1019.5
20260506134005 55 338 1.0 2.0 0.00 0.00 0.00 87 1019.5
20260506133505 55 327 2.0 2.0 0.00 0.00 0.00 87 1019.6
20260506133006 55 327 2.0 3.0 0.00 0.00 0.00 88 1019.6
20260506132505 55 327 1.0 2.0 0.00 0.00 0.00 88 1019.6
20260506131005 55 328 2.0 3.0 0.00 0.00 0.00 88 1019.5
20260506130505 55 335 2.0 3.0 0.00 0.00 0.00 88 1019.4
20260506130005 55 330 1.0 3.0 0.00 0.00 0.00 88 1019.4
20260506125505 54 355 2.0 3.0 0.00 0.00 0.00 88 1019.3
20260506125005 54 337 1.0 2.0 0.00 0.00 0.00 88 1019.3
20260506124505 54 352 0.0 1.0 0.00 0.00 0.00 88 1019.1
20260506124005 54 353 1.0 2.0 0.00 0.00 0.00 88 1019.1
20260506123505 54 344 1.0 2.0 0.00 0.00 0.00 88 1019.0
20260506122506 55 24 1.0 2.0 0.00 0.00 0.00 88 1019.1
20260506122005 55 8 1.0 2.0 0.00 0.00 0.00 87 1018.9
20260506121506 55 21 1.0 2.0 0.00 0.00 0.00 87 1019.0
20260506121005 55 19 1.0 3.0 0.00 0.00 0.00 87 1018.9
20260506115505 56 13 1.0 2.0 0.00 0.00 0.00 86 1019.0
20260506115006 56 7 2.0 3.0 0.00 0.00 0.00 86 1018.9
20260506113505 57 350 1.0 2.0 0.00 0.00 0.00 86 1018.8
20260506113005 57 336 0.0 1.0 0.00 0.00 0.00 86 1018.9
20260506112005 57 342 1.0 2.0 0.00 0.00 0.00 85 1018.8
20260506111005 57 0 1.0 2.0 0.00 0.00 0.00 85 1018.7
20260506110505 57 320 2.0 6.0 0.00 0.00 0.00 86 1018.8
20260506110005 57 323 2.0 3.0 0.00 0.00 0.00 86 1018.7
20260506105505 57 0 1.0 3.0 0.00 0.00 0.00 86 1018.6
20260506105005 57 9 3.0 7.0 0.00 0.00 0.00 86 1018.5
20260506104505 57 337 1.0 3.0 0.00 0.00 0.00 87 1018.5
20260506104005 57 19 0.0 2.0 0.00 0.00 0.00 87 1018.3
20260506103505 57 7 1.0 2.0 0.00 0.00 0.00 87 1018.2
20260506103006 57 18 0.0 2.0 0.00 0.00 0.00 87 1018.3
20260506102505 57 12 0.0 2.0 0.00 0.00 0.00 87 1018.2
20260506102005 57 17 0.0 0.0 0.00 0.00 0.00 87 1018.1
20260506101505 57 17 1.0 2.0 0.00 0.00 0.00 87 1018.1
20260506101005 57 16 0.0 2.0 0.00 0.00 0.00 87 1018.0
20260506100505 57 11 1.0 1.0 0.00 0.00 0.00 87 1017.9
20260506095505 57 0 0.0 2.0 0.00 0.00 0.00 87 1017.8
20260506095005 57 0 0.0 1.0 0.00 0.00 0.00 87 1017.7
20260506094505 57 0 0.0 2.0 0.00 0.00 0.00 87 1017.7
20260506094005 57 26 0.0 2.0 0.00 0.00 0.00 87 1017.8
20260506093505 57 32 2.0 2.0 0.00 0.00 0.00 87 1017.7
20260506093005 57 34 1.0 2.0 0.00 0.00 0.00 87 1017.7
20260506092005 57 34 0.0 2.0 0.00 0.00 0.00 87 1017.7
20260506091005 57 14 1.0 2.0 0.00 0.00 0.00 87 1017.7
20260506090505 57 13 0.0 2.0 0.00 0.00 0.00 87 1017.7
20260506090006 57 13 0.0 0.0 0.00 0.00 0.00 87 1017.7
20260506085505 57 13 0.0 2.0 0.00 0.00 0.00 87 1017.6
20260506085005 57 13 0.0 2.0 0.00 0.00 0.00 87 1017.7
20260506082505 58 6 1.0 2.0 0.00 0.00 0.00 87 1017.6
20260506082006 58 6 0.0 2.0 0.00 0.00 0.00 87 1017.6
20260506081505 58 6 1.0 2.0 0.00 0.00 0.00 87 1017.6
20260506081005 58 6 0.0 2.0 0.00 0.00 0.00 86 1017.6
20260506080504 58 6 1.0 2.0 0.00 0.00 0.00 87 1017.6
20260506073505 58 71 0.0 0.0 0.00 0.00 0.00 86 1017.3
20260506073005 58 71 0.0 0.0 0.00 0.00 0.00 86 1017.2
20260506072505 58 71 0.0 0.0 0.00 0.00 0.00 86 1017.2
20260506072005 58 71 0.0 0.0 0.00 0.00 0.00 86 1017.2
20260506071505 58 71 0.0 0.0 0.00 0.00 0.00 86 1017.1
20260506071005 59 71 0.0 0.0 0.00 0.00 0.00 86 1017.1
20260506061505 59 71 0.0 0.0 0.00 0.00 0.00 85 1016.8
20260506061005 59 71 0.0 0.0 0.00 0.00 0.00 85 1016.8
20260506060504 59 71 0.0 0.0 0.00 0.00 0.00 85 1016.8